Hourly Weather Lubango

Today, 14 August, Friday

Time Temperature Precipitation Wind Pressure Humidity
00:00 +15°C° 0 mm 2 mps 608 mmHg 24%
01:00 +15°C° 0 mm 2 mps 608 mmHg 24%
02:00 +15°C° 0 mm 2 mps 608 mmHg 24%
03:00 +14°C° 0 mm 3 mps 608 mmHg 24%
04:00 +13°C° 0 mm 3 mps 608 mmHg 24%
05:00 +13°C° 0 mm 3 mps 608 mmHg 25%
06:00 +13°C° 0 mm 3 mps 608 mmHg 25%
07:00 +13°C° 0 mm 3 mps 608 mmHg 25%
08:00 +18°C° 0 mm 3 mps 610 mmHg 21%
09:00 +22°C° 0 mm 4 mps 611 mmHg 17%
10:00 +26°C° 0 mm 5 mps 612 mmHg 13%
11:00 +27°C° 0 mm 4 mps 612 mmHg 12%
12:00 +29°C° 0 mm 3 mps 611 mmHg 11%
13:00 +30°C° 0 mm 2 mps 611 mmHg 10%
14:00 +29°C° 0 mm 2 mps 610 mmHg 11%
15:00 +29°C° 0 mm 2 mps 610 mmHg 12%
16:00 +29°C° 0 mm 2 mps 610 mmHg 12%
17:00 +25°C° 0 mm 2 mps 608 mmHg 24%
18:00 +20°C° 0 mm 2 mps 607 mmHg 36%
19:00 +16°C° 0 mm 2 mps 606 mmHg 48%
20:00 +15°C° 0 mm 2 mps 607 mmHg 46%
21:00 +15°C° 0 mm 2 mps 607 mmHg 45%
22:00 +15°C° 0 mm 2 mps 607 mmHg 43%
23:00 +15°C° 0 mm 2 mps 607 mmHg 38%

Tomorrow, 15 August, Saturday

Time Temperature Precipitation Wind Pressure Humidity
00:00 +15°C° 0 mm 2 mps 607 mmHg 33%
01:00 +15°C° 0 mm 2 mps 607 mmHg 28%
02:00 +14°C° 0 mm 2 mps 607 mmHg 27%
03:00 +14°C° 0 mm 2 mps 607 mmHg 26%
04:00 +14°C° 0 mm 2 mps 606 mmHg 25%
05:00 +14°C° 0 mm 2 mps 607 mmHg 25%
06:00 +15°C° 0 mm 2 mps 607 mmHg 25%
07:00 +15°C° 0 mm 2 mps 608 mmHg 25%
08:00 +19°C° 0 mm 2 mps 609 mmHg 20%
09:00 +23°C° 0 mm 2 mps 610 mmHg 16%
10:00 +26°C° 0 mm 2 mps 612 mmHg 12%
11:00 +28°C° 0 mm 2 mps 612 mmHg 11%
12:00 +29°C° 0 mm 2 mps 611 mmHg 10%
13:00 +30°C° 0 mm 2 mps 611 mmHg 10%
14:00 +29°C° 0 mm 2 mps 610 mmHg 11%
15:00 +29°C° 0 mm 2 mps 610 mmHg 13%
16:00 +28°C° 0 mm 3 mps 609 mmHg 14%
17:00 +24°C° 0 mm 2 mps 608 mmHg 26%
18:00 +19°C° 0 mm 2 mps 607 mmHg 39%
19:00 +15°C° 0 mm 1 mps 606 mmHg 51%
20:00 +15°C° 0 mm 1 mps 606 mmHg 48%
21:00 +15°C° 0 mm 1 mps 607 mmHg 44%
22:00 +15°C° 0 mm 1 mps 607 mmHg 40%
23:00 +15°C° 0 mm 1 mps 607 mmHg 36%

Day after tomorrow, 16 August, Sunday

Time Temperature Precipitation Wind Pressure Humidity
00:00 +15°C° 0 mm 1 mps 607 mmHg 32%
01:00 +15°C° 0 mm 1 mps 607 mmHg 28%
02:00 +15°C° 0 mm 2 mps 607 mmHg 27%
03:00 +15°C° 0 mm 2 mps 606 mmHg 27%
04:00 +14°C° 0 mm 2 mps 606 mmHg 26%
05:00 +15°C° 0 mm 2 mps 606 mmHg 27%
06:00 +15°C° 0 mm 2 mps 607 mmHg 27%
07:00 +15°C° 0 mm 2 mps 608 mmHg 28%
08:00 +19°C° 0 mm 2 mps 609 mmHg 22%
09:00 +23°C° 0 mm 2 mps 611 mmHg 17%
10:00 +27°C° 0 mm 2 mps 612 mmHg 11%
11:00 +29°C° 0 mm 2 mps 612 mmHg 10%
12:00 +30°C° 0 mm 2 mps 612 mmHg 10%
13:00 +31°C° 0 mm 2 mps 611 mmHg 9%
14:00 +31°C° 0 mm 2 mps 611 mmHg 9%
15:00 +30°C° 0 mm 2 mps 610 mmHg 10%
16:00 +30°C° 0 mm 2 mps 610 mmHg 10%
17:00 +26°C° 0 mm 2 mps 608 mmHg 19%
18:00 +22°C° 0 mm 1 mps 607 mmHg 29%
19:00 +18°C° 0 mm 1 mps 606 mmHg 38%
20:00 +16°C° 0 mm 1 mps 607 mmHg 36%
21:00 +16°C° 0 mm 1 mps 607 mmHg 34%
22:00 +16°C° 0 mm 1 mps 607 mmHg 32%
23:00 +16°C° 0 mm 1 mps 607 mmHg 31%

17 August, Monday

Time Temperature Precipitation Wind Pressure Humidity
00:00 +15°C° 0 mm 1 mps 607 mmHg 29%
01:00 +15°C° 0 mm 1 mps 607 mmHg 28%
02:00 +15°C° 0 mm 1 mps 607 mmHg 28%
03:00 +14°C° 0 mm 1 mps 607 mmHg 28%
04:00 +14°C° 0 mm 1 mps 606 mmHg 27%
05:00 +15°C° 0 mm 1 mps 607 mmHg 26%
06:00 +15°C° 0 mm 1 mps 607 mmHg 26%
07:00 +15°C° 0 mm 1 mps 608 mmHg 25%
08:00 +19°C° 0 mm 2 mps 610 mmHg 21%
09:00 +24°C° 0 mm 2 mps 611 mmHg 17%
10:00 +27°C° 0 mm 2 mps 613 mmHg 13%
11:00 +28°C° 0 mm 2 mps 612 mmHg 12%
12:00 +29°C° 0 mm 2 mps 612 mmHg 12%
13:00 +30°C° 0 mm 2 mps 611 mmHg 11%
14:00 +30°C° 0 mm 3 mps 611 mmHg 13%
15:00 +29°C° 0 mm 3 mps 610 mmHg 16%
16:00 +28°C° 0 mm 4 mps 610 mmHg 18%
17:00 +24°C° 0 mm 3 mps 609 mmHg 29%
18:00 +19°C° 0 mm 2 mps 608 mmHg 41%
19:00 +15°C° 0 mm 1 mps 607 mmHg 52%
20:00 +15°C° 0 mm 1 mps 607 mmHg 47%
21:00 +15°C° 0 mm 1 mps 607 mmHg 42%
22:00 +15°C° 0 mm 1 mps 608 mmHg 38%
23:00 +15°C° 0 mm 1 mps 608 mmHg 34%

18 August, Tuesday

Time Temperature Precipitation Wind Pressure Humidity
00:00 +15°C° 0 mm 1 mps 608 mmHg 30%
01:00 +15°C° 0 mm 1 mps 608 mmHg 26%
02:00 +15°C° 0 mm 1 mps 607 mmHg 26%
03:00 +14°C° 0 mm 1 mps 607 mmHg 26%
04:00 +14°C° 0 mm 1 mps 606 mmHg 26%
05:00 +14°C° 0 mm 1 mps 607 mmHg 26%
06:00 +14°C° 0 mm 1 mps 607 mmHg 25%
07:00 +15°C° 0 mm 1 mps 608 mmHg 24%
08:00 +19°C° 0 mm 2 mps 609 mmHg 20%
09:00 +23°C° 0 mm 2 mps 611 mmHg 17%
10:00 +27°C° 0 mm 2 mps 612 mmHg 13%
11:00 +28°C° 0 mm 2 mps 612 mmHg 12%
12:00 +29°C° 0 mm 2 mps 611 mmHg 12%
13:00 +30°C° 0 mm 2 mps 611 mmHg 11%
14:00 +30°C° 0 mm 3 mps 610 mmHg 13%
15:00 +29°C° 0 mm 3 mps 609 mmHg 14%
16:00 +28°C° 0 mm 3 mps 608 mmHg 16%
17:00 +24°C° 0 mm 3 mps 607 mmHg 26%
18:00 +19°C° 0 mm 2 mps 606 mmHg 36%
19:00 +15°C° 0 mm 2 mps 605 mmHg 46%
20:00 +15°C° 0 mm 1 mps 606 mmHg 43%
21:00 +15°C° 0 mm 1 mps 606 mmHg 41%
22:00 +14°C° 0 mm 1 mps 606 mmHg 39%
23:00 +14°C° 0 mm 1 mps 606 mmHg 36%

19 August, Wednesday

Time Temperature Precipitation Wind Pressure Humidity
00:00 +14°C° 0 mm 1 mps 606 mmHg 34%
01:00 +14°C° 0 mm 1 mps 606 mmHg 32%
02:00 +14°C° 0 mm 1 mps 606 mmHg 31%
03:00 +14°C° 0 mm 2 mps 606 mmHg 30%
04:00 +14°C° 0 mm 2 mps 606 mmHg 28%
05:00 +14°C° 0 mm 2 mps 606 mmHg 29%
06:00 +15°C° 0 mm 2 mps 606 mmHg 30%
07:00 +14°C° 0 mm 3 mps 607 mmHg 31%
08:00 +18°C° 0 mm 3 mps 608 mmHg 26%
09:00 +21°C° 0 mm 3 mps 609 mmHg 20%
10:00 +26°C° 0 mm 3 mps 610 mmHg 14%
11:00 +27°C° 0 mm 3 mps 610 mmHg 13%
12:00 +28°C° 0 mm 3 mps 610 mmHg 12%
13:00 +30°C° 0 mm 3 mps 610 mmHg 11%
14:00 +29°C° 0 mm 3 mps 609 mmHg 12%
15:00 +29°C° 0 mm 2 mps 608 mmHg 13%
16:00 +29°C° 0 mm 2 mps 608 mmHg 15%
17:00 +25°C° 0 mm 2 mps 607 mmHg 27%
18:00 +20°C° 0 mm 1 mps 606 mmHg 39%
19:00 +15°C° 0 mm 1 mps 605 mmHg 52%
20:00 +15°C° 0 mm 1 mps 606 mmHg 51%
21:00 +15°C° 0 mm 1 mps 606 mmHg 50%
22:00 +15°C° 0 mm 1 mps 606 mmHg 49%
23:00 +13°C° 0 mm 0 mps 606 mmHg 49%
Show more